Regional Weather Roundup
Issued by NWS Sioux Falls, SD

Home | Current Version | Previous Version | Text Only | Print | Product List | Glossary On
Versions: 1 2 3 4 5 6 7 8 9 10 11 12 13 14 15 16 17 18 19 20 21 22 23 24 25 26 27 28 29 30 31 32 33 34 35 36 37 38 39 40 41 42 43 44 45 46 47 48 49 50
000
ASUS43 KFSD 011810
RWRFSD

WEATHER ROUNDUP FOR SE SOUTH DAKOTA/SW MINNESOTA/NW IOWA
NATIONAL WEATHER SERVICE SIOUX FALLS SD
100 PM CDT WED APR 01 2015

NOTE: "FAIR" INDICATES FEW OR NO CLOUDS BELOW 12,000 FEET WITH NO
SIGNIFICANT WEATHER AND OR OBSTRUCTIONS TO VISIBILITY.


SDZ038>040-050-052>070-011900-
SOUTHEAST SOUTH DAKOTA

CITY           SKY/WX    TMP DP  RH WIND       PRES   REMARKS
BROOKINGS      FAIR      73  45  35 S32G41    29.50F
CHAMBERLAIN    CLOUDY    64  37  38 W18G31    29.56R
6HR MIN TEMP:  60; 6HR MAX TEMP:  72;

HURON          CLOUDY    74  37  26 W20G28    29.48R
6HR MIN TEMP:  53; 6HR MAX TEMP:  75;

MADISON        FAIR      73  43  33 SW32G41   29.51F
MITCHELL       CLOUDY    77  41  27 SW23G30   29.49F
6HR MIN TEMP:  55; 6HR MAX TEMP:  77;

SIOUX FALLS    PTSUNNY   78  43  28 S17G36    29.55F
6HR MIN TEMP:  56; 6HR MAX TEMP:  78;

WINNER         FAIR      66  37  34 W29G36    29.60R
YANKTON        FAIR      79  45  29 S21G37    29.55F
$$

MNZ071-072-080-081-089-090-097-098-011900-
SOUTHWEST MINNESOTA

CITY           SKY/WX    TMP DP  RH WIND       PRES   REMARKS
FAIRMONT       FAIR      77  30  18 S36G43    29.62F
JACKSON        FAIR      77  34  20 S30G41    29.62F
LUVERNE        FAIR      77  41  27 SW32G39   29.58F
MARSHALL       FAIR      75  43  31 SW38G47   29.50F
6HR MIN TEMP:  59; 6HR MAX TEMP:  77;

MONTEVIDEO     FAIR      75  43  31 W25G38    29.46F
PIPESTONE      FAIR      75  39  27 SW29G35   29.57F
REDWOOD FALLS  PTSUNNY   78  41  26 S30G45    29.51F HAZE
TRACY          FAIR      76  42  30 SW28G37   29.55S
WINDOM         FAIR      77  37  24 S28G40    29.58F
WORTHINGTON    FAIR      75  41  29 S32G40    29.60F
$$

IAZ001>003-012>014-020>022-031-032-NEZ013-014-SDZ071-011900-
NORTHWEST IOWA

CITY           SKY/WX    TMP DP  RH WIND       PRES   REMARKS
CHEROKEE       FAIR      76  40  27 S28G36    29.64F
DENISON        FAIR      79  41  25 S25G41    29.67F
ESTHERVILLE    FAIR      77  37  23 S39G48    29.62F
LE MARS        FAIR      79  43  27 S31G45    29.60F
ORANGE CITY    FAIR      79  37  22 S32G43    29.60F
SHELDON        FAIR      77  43  29 S37G47    29.58F
SIOUX CITY     FAIR      80  43  26 S26G39    29.63F
6HR MIN TEMP:  51; 6HR MAX TEMP:  80;

SPENCER        FAIR      79  41  25 S31G43    29.63F
6HR MIN TEMP:  53; 6HR MAX TEMP:  79;

STORM LAKE     FAIR      77  39  25 S33G44    29.66F
$$

ABBREVIATIONS USED IN REMARKS
   TC - TEMPERATURE IN CELSIUS
  WCI - WIND CHILL INDEX
   HX - HEAT INDEX
  VSB - VISIBILITY




USA.gov is the U.S. government's official web portal to all federal, state and local government web resources and services.